www.pogodaiklimat.ru
ПОГОДА в Меридене
Время
(UTC), дата
10:03 09.12
10:53 09.12
11:43 09.12
11:53 09.12
12:16 09.12
12:21 09.12
12:48 09.12
12:53 09.12
13:12 09.12
13:20 09.12
13:43 09.12
13:53 09.12
14:00 09.12
14:20 09.12
14:38 09.12
14:42 09.12
14:53 09.12
15:00 09.12
15:07 09.12
15:15 09.12
15:28 09.12
15:39 09.12
15:53 09.12
16:01 09.12
16:43 09.12
16:53 09.12
17:03 09.12
17:12 09.12
17:25 09.12
17:38 09.12
17:48 09.12
17:53 09.12
18:03 09.12
18:21 09.12
18:26 09.12
18:53 09.12
19:14 09.12
19:53 09.12
20:03 09.12
20:32 09.12
20:53 09.12
21:05 09.12
21:53 09.12
22:04 09.12
22:53 09.12
23:53 09.12
00:13 09.12
00:53 09.12
Ветер
(напр.,м/с)
Видим. Явления Облачность Т
(С)
Тd
(С)
f
(%)
Тe
(С)
Тes
(С)
Комфортность P
(гПа)
Po
(гПа)
Тmin
(С)
Tmax
(С)
R
(мм)
R24
(мм)
S
(см)
0 2 км слабый дождь, дымка 10/10 90 м +1.1 +0.6 96 -0 -0 1019.5
0 2 км слабый дождь, дымка 10/10 240 м +1.7 +1.1 96 0 0 1022.8 1018.8 -2.2 +1.7 3.0
0 800 м дождь, туман 10/10 120 м +1.7 +1.7 100 0 0 1017.8
0 800 м дождь, туман 10/10 120 м +2.2 +1.1 92 +1 +1 1021.3 1017.5
СЗ 1 1 км дождь, дымка 10/10 150 м +2.8 +2.2 96 0 0 1016.8
СЗ 3 2 км дождь, дымка 10/10 150 м +2.8 +2.2 96 -2 -2 1016.8
0 2 км сильный дождь, дымка 10/10 150 м +3.0 +3.0 100 +2 +2 1016.8
0 2 км сильный дождь, дымка 10/10 150 м +3.3 +2.8 97 +2 +2 1020.9 1016.8
0 1 км дождь, дымка 10/10 150 м +2.8 +2.2 96 +2 +2 1016.5
0 3 км слабый дождь, дымка 10/10 150 м +3.3 +2.8 97 +2 +2 1016.5
З 1 5 км слабый дождь, дымка 10/10 120 м +2.8 +1.7 92 0 0 1016.5
0 3 км сильный дождь, дымка 10/10 120 м +3.3 +3.3 100 +2 +2 1020.0 1016.1
0 2 км сильный дождь, дымка 10/10 180 м +3.3 +3.3 100 +2 +2 1015.8
0 1 км сильный дождь, дымка 10/10 180 м +3.3 +2.8 97 +2 +2 1014.8
З 3 2 км слабый дождь, дымка 10/10 120 м +3.3 +2.8 97 -1 -1 1014.1
СЗ 2 5 км слабый дождь, дымка 10/10 120 м +3.3 +2.8 97 -1 -1 1013.8
СЗ 2 5 км слабый дождь, дымка 10/10 120 м +3.9 +3.9 100 0 0 1017.3 1013.4
СЗ 2 3 км слабый дождь, дымка 10/10 150 м +3.3 +3.3 100 -1 -1 1013.4
нст 1 2 км сильный дождь, дымка 10/10 180 м +4.4 +3.9 97 +2 +2 1013.1
нст 1 2 км сильный дождь, дымка 10/10 240 м +6.1 +5.0 93 +4 +4 1012.7
Ю 4 5 км слабый дождь, дымка 10/10 210 м +10.0 +10.0 100 +7 +7 1012.4
Ю 8
{11}
3 км слабый дождь, дымка 10/10 210 м +11.1 +10.6 97 +7 +7 1012.1
Ю 8
{13}
5 км слабый дождь, дымка 10/10 240 м +11.7 +10.6 93 +8 +8 1015.7 1011.7
Ю 9
{14}
3 км слабый дождь, дымка 10/10 240 м +11.7 +11.1 96 +8 +8 1011.7
Ю 5
{12}
3 км дождь, дымка 10/10 270 м +11.7 +11.1 96 +9 +9 1011.1
Ю 6
{12}
3 км дождь, дымка 10/10 270 м +11.7 +11.1 96 +8 +8 1014.5 1010.7 +1.1 +12.2
Ю 6
{11}
5 км слабый дождь, дымка 10/10 270 м +11.7 +11.1 96 +8 +8 1010.4
Ю 6 3 км слабый дождь, дымка 10/10 270 м +11.7 +11.1 96 +8 +8 1010.4
Ю 6
{9}
11 км 10/10 180 м +11.7 +11.1 96 +8 +8 1010.0
Ю 5
{10}
3 км слабый дождь, дымка 10/10 150 м +11.7 +11.1 96 +9 +9 1009.7
Ю 4 5 км слабый дождь, дымка 10/10 150 м +12.0 +11.0 94 +9 +9 1009.7
Ю 4 5 км слабый дождь, дымка 10/10 150 м +11.7 +11.1 96 +9 +9 1013.5 1009.7
Ю 6 3 км слабый дождь, дымка 10/10 150 м +11.7 +11.1 96 +8 +8 1009.7
Ю 6
{9}
5 км дымка 10/10 180 м +11.7 +11.1 96 +8 +8 1009.4
Ю 5
{10}
3 км дымка 10/10 180 м +11.7 +11.1 96 +9 +9 1009.4
Ю 4 3 км дымка 10/10 180 м +11.7 +11.1 96 +9 +9 1013.2 1009.4
Ю 3 5 км дождь, дымка 10/10 240 м +11.7 +11.1 96 +10 +10 1009.4
Ю 4 11 км слабый дождь 10/10 150 м +11.1 +10.6 97 +9 +9 1012.6 1008.7
Ю 3 6 км слабый дождь, дымка 10/10 90 м +11.1 +10.6 97 +9 +9 1008.7
Ю 3 10 км слабый дождь, дымка 10/10 150 м +10.6 +10.0 96 +8 +8 1008.0
Ю 3 6 км дождь, дымка 10/10 210 м +10.6 +10.0 96 +8 +8 1011.2 1007.3
Ю 3 6 км слабый дождь, дымка 10/10 90 м +10.6 +10.0 96 +8 +8 1007.0
Ю 4 11 км слабый дождь 10/10 120 м +10.6 +10.0 96 +7 +7 1010.5 1006.7
Ю 5 10 км дождь, дымка 10/10 180 м +10.6 +10.0 96 +7 +7 1007.0
Ю 4 10 км дождь, дымка 10/10 180 м +10.6 +10.0 96 +7 +7 1009.7 1006.0 +10.6 +11.7
Ю 4 6 км сильный дождь, дымка 10/10 150 м +10.6 +10.0 96 +8 +8 1008.4 1004.6
Ю 5
{8}
10 км дождь, дымка 10/10 210 м +11.1 +10.6 97 +8 +8 1004.0
Ю 5
{9}
11 км дождь 10/10 210 м +12.2 +11.1 93 +9 +9 1007.4 1003.6
Местоположение метеостанции Meriden Markham Municipal Airport: широта 41.5097 долгота -72.8278 высота над уровнем моря 31 м.
В архиве по умолчанию представлена погода в Меридене за последние 1-2 суток. Обновление информации о фактической погоде в базе происходит ежечасно! Архивные данные за месяц целиком и за предыдущие месяцы Вы можете получить, выбрав интересующий диапазон дат из раскрывающегося списка и нажав кнопку "Ввод!".
Внимание! Архив погоды МЕТАР в базе сайта по станциям, не включенным в климатический монитор, хранится не более 60 дней. Нет смысла пытаться выбрать более раннюю дату.
*Определитесь, кто Вы:
Внимание! Время в таблицах - всемирное. Для получения местного времени необходимо прибавить поправку, которая равна ч.
Смотрите также архив погоды в соседних городах и на ближайших метеорологических станциях:
Партнеры нашего сайта:      
Пояснения к столбцам:
  • Ветер - указаны скорость ветра в м/с - средняя за 10 мин, порывы в срок и между сроками (в фигурных скобках) и направление, откуда дует ветер: С - северный,
  • СВ - северо-восточный, В - восточный, ЮВ - юго-восточный, Ю - южный, ЮЗ - юго-западный, З - западный, СЗ - северо-западный.
  • Видимость - горизонтальная дальность видимости в метрах или километрах. При видимости от 1 до 10 км при отсутствии осадков обычно наблюдается дымка, при ухудшении видимости до 1 км и менее - туман. В сухую погоду видимость может ухудшаться дымом, пылью или мглою.
  • Явления - указаны атмосферные явления, наблюдавшиеся в срок или в последний час перед сроком; фигурными скобками обозначены явления, наблюдавшиеся между сроками (за 1-3 часа до срока); квадратными скобками обозначены град или гололедные отложения с указанием их диаметра в мм.
  • Облачность - указаны через наклонную черту общая и нижняя облачность в баллах и высота нижней границы облаков в метрах; квадратными скобками обозначены формы облаков: Ci - перистые, Cs - перисто-слоистые, Cc - перисто-кучевые, Ac - высококучевые, As - высокослоистые, Sc - слоисто-кучевые, Ns - слоисто-дождевые, Cu - кучевые, Cb - кучево-дождевые. Подробнее классификацию облаков см. в Атласе облаков (PDF).
  • T - Температура воздуха - температура, измеренная на высоте 2 м над землей.
  • Td - Температура точки росы - температура, при понижении до которой содержащийся в воздухе водяной пар достигнет насыщения.
  • f - Относительная влажность воздуха - влажноcть воздуха, измеренная на высоте 2 м над землей.
  • Te - Эффективная температура - температура, которую ощущает одетый по сезону человек в тени. Характеристика душности погоды. При расчете учитывается влияние влажности воздуха и скорости ветра на теплоощущения человека.
  • Tes - Эффективная температура на солнце - температура, которую ощущает человек, с поправкой на солнечный нагрев. Характеристика знойности погоды. Зависит от высоты солнца над горизонтом, облачности и скорости ветра. Ночью, в пасмурную погоду, а также при ветре 12 м/с и более поправка равна нулю.
  • P - Атмосферное давление - приведенное к уровню моря атмосферное давление.
  • Po - Атмосферное давление - измеренное на уровне метеостанции атмосферное давление.
  • Tmin - Минимальная температура - минимум температуры воздуха на высоте 2 м над землей.
  • Tmax - Максимальная температура - максимум температуры воздуха на высоте 2 м над землей.
  • R - Количество осадков - Количество выпавших осадков за период времени, мм. При наведении курсора мыши на число - период времени, за который выпало указанное количество осадков.
  • R24 - Количество осадков - Количество выпавших осадков за 24 часа, мм.
  • S - Снежный покров - Высота снежного покрова, см. При наведении курсора мыши на число - состояние снежного покрова и степень покрытия местности в баллах.